owner,sensor,date,latitude,longitude,vertical_datum,wind_speed,wind_to_direction,wind_speed_of_gust,qcFlag 
TABS,ioos:station:wmo:42044:1,2016-09-01T00:00:00Z,26.1914,-97.0507,0.0,2.802802169,40.22404964,3.37,'11111222,11111222,11111222' 
TABS,ioos:station:wmo:42044:1,2016-09-01T00:30:00Z,26.1914,-97.0507,0.0,2.934365349,56.25543568,3.75,'11111222,11111222,11111222' 
TABS,ioos:station:wmo:42044:1,2016-09-01T01:00:00Z,26.1914,-97.0507,0.0,4.010448853,28.92943832,4.83,'11111222,11111222,11111222' 
TABS,ioos:station:wmo:42044:1,2016-09-01T01:30:00Z,26.1914,-97.0507,0.0,4.665115218,38.12243639,5.61,'11111222,11111222,11111222' 
TABS,ioos:station:wmo:42044:1,2016-09-01T02:00:00Z,26.1914,-97.0507,0.0,3.95,36.86960097,4.74,'11111222,11111222,11111222' 
TABS,ioos:station:wmo:42044:1,2016-09-01T02:30:00Z,26.1914,-97.0507,0.0,3.42242604,39.78383259,4.38,'11111222,11111222,11111222' 
TABS,ioos:station:wmo:42044:1,2016-09-01T03:00:00Z,26.1914,-97.0507,0.0,4.347528033,47.98307737,5.17,'11111222,11111222,11111222' 
TABS,ioos:station:wmo:42044:1,2016-09-01T03:30:00Z,26.1914,-97.0507,0.0,4.616600481,47.98479017,5.57,'11111222,11111222,11111222' 
TABS,ioos:station:wmo:42044:1,2016-09-01T04:00:00Z,26.1914,-97.0507,0.0,4.458564791,42.6364432,5.25,'11111222,11111222,11111222' 
TABS,ioos:station:wmo:42044:1,2016-09-01T04:30:00Z,26.1914,-97.0507,0.0,4.235327614,48.25379284,5.28,'11111222,11111222,11111222' 
TABS,ioos:station:wmo:42044:1,2016-09-01T05:00:00Z,26.1914,-97.0507,0.0,4.156392667,49.48809065,4.98,'11111222,11111222,11111222' 
TABS,ioos:station:wmo:42044:1,2016-09-01T05:30:00Z,26.1914,-97.0507,0.0,3.921683312,47.68667803,4.78,'11111222,11111222,11111222' 
TABS,ioos:station:wmo:42044:1,2016-09-01T06:00:00Z,26.1914,-97.0507,0.0,3.324154028,43.78081193,3.96,'11111222,11111222,11111222' 
TABS,ioos:station:wmo:42044:1,2016-09-01T06:30:00Z,26.1914,-97.0507,0.0,3.439098719,26.78829754,3.96,'11111222,11111222,11111222' 
TABS,ioos:station:wmo:42044:1,2016-09-01T07:00:00Z,26.1914,-97.0507,0.0,3.394657567,22.33396965,4.14,'11111222,11111222,11111222' 
TABS,ioos:station:wmo:42044:1,2016-09-01T07:30:00Z,26.1914,-97.0507,0.0,3.848649114,18.9525547,4.76,'11111222,11111222,11111222' 
TABS,ioos:station:wmo:42044:1,2016-09-01T08:00:00Z,26.1914,-97.0507,0.0,3.55562934,11.02527385,4.37,'11111222,11111222,11111222' 
TABS,ioos:station:wmo:42044:1,2016-09-01T08:30:00Z,26.1914,-97.0507,0.0,4.135516896,14.70805905,5.03,'11111222,11111222,11111222' 
TABS,ioos:station:wmo:42044:1,2016-09-01T09:00:00Z,26.1914,-97.0507,0.0,4.246940075,18.39203283,5.21,'11111222,11111222,11111222' 
TABS,ioos:station:wmo:42044:1,2016-09-01T09:30:00Z,26.1914,-97.0507,0.0,4.399693171,10.2114294,5.28,'11111222,11111222,11111222' 
TABS,ioos:station:wmo:42044:1,2016-09-01T10:00:00Z,26.1914,-97.0507,0.0,4.246987167,8.530535203,5.12,'11111222,11111222,11111222' 
TABS,ioos:station:wmo:42044:1,2016-09-01T10:30:00Z,26.1914,-97.0507,0.0,4.24077823,6.906936113,5.39,'11111222,11111222,11111222' 
TABS,ioos:station:wmo:42044:1,2016-09-01T11:00:00Z,26.1914,-97.0507,0.0,4.167073313,14.73631953,5.14,'11111222,11111222,11111222' 
TABS,ioos:station:wmo:42044:1,2016-09-01T11:30:00Z,26.1914,-97.0507,0.0,3.873977284,15.11218505,5.13,'11111222,11111222,11111222' 
TABS,ioos:station:wmo:42044:1,2016-09-01T12:00:00Z,26.1914,-97.0507,0.0,3.381952099,12.63882243,4.11,'11111222,11111222,11111222' 
TABS,ioos:station:wmo:42044:1,2016-09-01T12:30:00Z,26.1914,-97.0507,0.0,3.447723887,11.3748783,4.37,'11111222,11111222,11111222' 
TABS,ioos:station:wmo:42044:1,2016-09-01T13:00:00Z,26.1914,-97.0507,0.0,3.75616826,7.95729616,4.87,'11111222,11111222,11111222' 
TABS,ioos:station:wmo:42044:1,2016-09-01T13:30:00Z,26.1914,-97.0507,0.0,3.692654871,2.17256592,4.62,'11111222,11111222,11111222' 
TABS,ioos:station:wmo:42044:1,2016-09-01T14:00:00Z,26.1914,-97.0507,0.0,3.585108088,348.2510852,5.16,'11111222,11111222,11111222' 
TABS,ioos:station:wmo:42044:1,2016-09-01T14:30:00Z,26.1914,-97.0507,0.0,3.957284422,356.5228096,4.91,'11111222,11111222,11111222' 
TABS,ioos:station:wmo:42044:1,2016-09-01T15:00:00Z,26.1914,-97.0507,0.0,4.508569618,8.417427034,5.36,'11111222,11111222,11111222' 
TABS,ioos:station:wmo:42044:1,2016-09-01T15:30:00Z,26.1914,-97.0507,0.0,4.700904168,3.903037796,5.95,'11111222,11111222,11111222' 
TABS,ioos:station:wmo:42044:1,2016-09-01T16:00:00Z,26.1914,-97.0507,0.0,4.926438876,11.35531311,5.76,'11111222,11111222,11111222' 
TABS,ioos:station:wmo:42044:1,2016-09-01T16:30:00Z,26.1914,-97.0507,0.0,5.281145709,358.8063029,6.47,'11111222,11111222,11111222' 
TABS,ioos:station:wmo:42044:1,2016-09-01T17:00:00Z,26.1914,-97.0507,0.0,5.458094906,350.2958827,6.56,'11111222,11111222,11111222' 
TABS,ioos:station:wmo:42044:1,2016-09-01T17:30:00Z,26.1914,-97.0507,0.0,5.088378917,352.0926453,6.59,'11111222,11111222,11111222' 
TABS,ioos:station:wmo:42044:1,2016-09-01T18:00:00Z,26.1914,-97.0507,0.0,5.319971804,350.6968404,6.61,'11111222,11111222,11111222' 
TABS,ioos:station:wmo:42044:1,2016-09-01T18:30:00Z,26.1914,-97.0507,0.0,5.13065298,353.7336061,6.32,'11111222,11111222,11111222' 
TABS,ioos:station:wmo:42044:1,2016-09-01T19:00:00Z,26.1914,-97.0507,0.0,5.431252158,354.9295338,6.3,'11111222,11111222,11111222' 
TABS,ioos:station:wmo:42044:1,2016-09-01T19:30:00Z,26.1914,-97.0507,0.0,5.305431179,2.592538119,6.36,'11111222,11111222,11111222' 
TABS,ioos:station:wmo:42044:1,2016-09-01T20:00:00Z,26.1914,-97.0507,0.0,4.636226914,11.06732965,5.58,'11111222,11111222,11111222' 
TABS,ioos:station:wmo:42044:1,2016-09-01T20:30:00Z,26.1914,-97.0507,0.0,3.898640789,20.57298743,4.7,'11111222,11111222,11111222' 
TABS,ioos:station:wmo:42044:1,2016-09-01T21:00:00Z,26.1914,-97.0507,0.0,4.115264269,23.63708414,5.04,'11111222,11111222,11111222' 
TABS,ioos:station:wmo:42044:1,2016-09-01T21:30:00Z,26.1914,-97.0507,0.0,4.031935019,28.59884112,4.76,'11111222,11111222,11111222' 
TABS,ioos:station:wmo:42044:1,2016-09-01T22:00:00Z,26.1914,-97.0507,0.0,4.002024488,36.66916725,4.76,'11111222,11111222,11111222' 
TABS,ioos:station:wmo:42044:1,2016-09-01T22:30:00Z,26.1914,-97.0507,0.0,3.634116124,34.9142316,4.27,'11111222,11111222,11111222' 
TABS,ioos:station:wmo:42044:1,2016-09-01T23:00:00Z,26.1914,-97.0507,0.0,3.694008663,36.74551747,4.49,'11111222,11111222,11111222' 
TABS,ioos:station:wmo:42044:1,2016-09-01T23:30:00Z,26.1914,-97.0507,0.0,3.683069372,41.69782636,4.28,'11111222,11111222,11111222' 
TABS,ioos:station:wmo:42044:1,2016-09-02T00:00:00Z,26.1914,-97.0507,0.0,3.478807267,48.61233316,4.22,'11111222,11111222,11111222' 
TABS,ioos:station:wmo:42044:1,2016-09-02T00:30:00Z,26.1914,-97.0507,0.0,4.09685245,48.95846912,4.87,'11111222,11111222,11111222' 
TABS,ioos:station:wmo:42044:1,2016-09-02T01:00:00Z,26.1914,-97.0507,0.0,4.194687116,48.67240669,4.88,'11111222,11111222,11111222' 
TABS,ioos:station:wmo:42044:1,2016-09-02T01:30:00Z,26.1914,-97.0507,0.0,4.202677718,38.91500468,5.18,'11111222,11111222,11111222' 
TABS,ioos:station:wmo:42044:1,2016-09-02T02:00:00Z,26.1914,-97.0507,0.0,4.000312488,37.58575924,4.63,'11111222,11111222,11111222' 
TABS,ioos:station:wmo:42044:1,2016-09-02T02:30:00Z,26.1914,-97.0507,0.0,3.492062428,41.63323152,4.16,'11111222,11111222,11111222' 
TABS,ioos:station:wmo:42044:1,2016-09-02T03:00:00Z,26.1914,-97.0507,0.0,2.795657347,42.53531658,3.28,'11111222,11111222,11111222' 
TABS,ioos:station:wmo:42044:1,2016-09-02T03:30:00Z,26.1914,-97.0507,0.0,2.96649625,47.86890294,3.7,'11111222,11111222,11111222' 
TABS,ioos:station:wmo:42044:1,2016-09-02T04:00:00Z,26.1914,-97.0507,0.0,2.736603735,40.85079032,3.39,'11111222,11111222,11111222' 
TABS,ioos:station:wmo:42044:1,2016-09-02T04:30:00Z,26.1914,-97.0507,0.0,2.318145811,36.22696753,3.19,'11111222,11111222,11111222' 
TABS,ioos:station:wmo:42044:1,2016-09-02T05:00:00Z,26.1914,-97.0507,0.0,1.990226118,36.00591294,2.53,'11111222,11111222,11111222' 
TABS,ioos:station:wmo:42044:1,2016-09-02T05:30:00Z,26.1914,-97.0507,0.0,1.334053972,14.76517812,1.79,'11111222,11111222,11111222' 
TABS,ioos:station:wmo:42044:1,2016-09-02T06:00:00Z,26.1914,-97.0507,0.0,1.64924225,22.83339032,2.02,'11111222,11111222,11111222' 
TABS,ioos:station:wmo:42044:1,2016-09-02T06:30:00Z,26.1914,-97.0507,0.0,0.7823682,35.11171862,1.18,'11111222,11111222,11111222' 
TABS,ioos:station:wmo:42044:1,2016-09-02T07:00:00Z,26.1914,-97.0507,0.0,1.192811804,34.75562082,1.56,'11111222,11111222,11111222' 
TABS,ioos:station:wmo:42044:1,2016-09-02T07:30:00Z,26.1914,-97.0507,0.0,0.84480767,6.115278807,1.17,'11111222,11111222,11111222' 
TABS,ioos:station:wmo:42044:1,2016-09-02T08:00:00Z,26.1914,-97.0507,0.0,0.864002315,343.8722514,1.24,'11111222,11111222,11111222' 
TABS,ioos:station:wmo:42044:1,2016-09-02T08:30:00Z,26.1914,-97.0507,0.0,1.056882207,327.3623583,1.5,'11111222,11111222,11111222' 
TABS,ioos:station:wmo:42044:1,2016-09-02T09:00:00Z,26.1914,-97.0507,0.0,1.550516043,317.8753417,1.91,'11111222,11111222,11111222' 
TABS,ioos:station:wmo:42044:1,2016-09-02T09:30:00Z,26.1914,-97.0507,0.0,1.754109461,320.3197762,2.54,'11111222,11111222,11111222' 
TABS,ioos:station:wmo:42044:1,2016-09-02T10:00:00Z,26.1914,-97.0507,0.0,2.838045102,343.4166064,3.47,'11111222,11111222,11111222' 
TABS,ioos:station:wmo:42044:1,2016-09-02T10:30:00Z,26.1914,-97.0507,0.0,3.182090508,346.1819301,3.85,'11111222,11111222,11111222' 
TABS,ioos:station:wmo:42044:1,2016-09-02T11:00:00Z,26.1914,-97.0507,0.0,3.566244523,339.4814003,4.32,'11111222,11111222,11111222' 
TABS,ioos:station:wmo:42044:1,2016-09-02T11:30:00Z,26.1914,-97.0507,0.0,4.157162494,336.7650589,4.71,'11111222,11111222,11111222' 
TABS,ioos:station:wmo:42044:1,2016-09-02T12:00:00Z,26.1914,-97.0507,0.0,4.015382921,347.4864881,5.22,'11111222,11111222,11111222' 
TABS,ioos:station:wmo:42044:1,2016-09-02T12:30:00Z,26.1914,-97.0507,0.0,3.883876929,353.6433216,4.67,'11111222,11111222,11111222' 
TABS,ioos:station:wmo:42044:1,2016-09-02T13:00:00Z,26.1914,-97.0507,0.0,3.791477285,349.6679345,4.61,'11111222,11111222,11111222' 
TABS,ioos:station:wmo:42044:1,2016-09-02T13:30:00Z,26.1914,-97.0507,0.0,4.140169079,345.5943678,5.09,'11111222,11111222,11111222' 
TABS,ioos:station:wmo:42044:1,2016-09-02T14:00:00Z,26.1914,-97.0507,0.0,3.405201903,16.19938291,4.09,'11111222,11111222,11111222' 
TABS,ioos:station:wmo:42044:1,2016-09-02T14:30:00Z,26.1914,-97.0507,0.0,3.385203096,23.68726049,4.07,'11111222,11111222,11111222' 
TABS,ioos:station:wmo:42044:1,2016-09-02T15:00:00Z,26.1914,-97.0507,0.0,3.528229018,21.62021503,4.41,'11111222,11111222,11111222' 
TABS,ioos:station:wmo:42044:1,2016-09-02T15:30:00Z,26.1914,-97.0507,0.0,3.829529997,25.02566311,4.57,'11111222,11111222,11111222' 
TABS,ioos:station:wmo:42044:1,2016-09-02T16:00:00Z,26.1914,-97.0507,0.0,3.789168774,19.58236769,4.8,'11111222,11111222,11111222' 
TABS,ioos:station:wmo:42044:1,2016-09-02T16:30:00Z,26.1914,-97.0507,0.0,3.497384737,14.23466668,4.32,'11111222,11111222,11111222' 
TABS,ioos:station:wmo:42044:1,2016-09-02T17:00:00Z,26.1914,-97.0507,0.0,4.143669871,19.74657997,5.09,'11111222,11111222,11111222' 
TABS,ioos:station:wmo:42044:1,2016-09-02T17:30:00Z,26.1914,-97.0507,0.0,4.393005805,13.02370318,5.5,'11111222,11111222,11111222' 
TABS,ioos:station:wmo:42044:1,2016-09-02T18:00:00Z,26.1914,-97.0507,0.0,3.846101923,15.84283461,4.46,'11111222,11111222,11111222' 
TABS,ioos:station:wmo:42044:1,2016-09-02T18:30:00Z,26.1914,-97.0507,0.0,4.401783729,27.90376227,5.33,'11111222,11111222,11111222' 
TABS,ioos:station:wmo:42044:1,2016-09-02T19:00:00Z,26.1914,-97.0507,0.0,4.596194078,30.74968494,5.48,'11111222,11111222,11111222' 
TABS,ioos:station:wmo:42044:1,2016-09-02T19:30:00Z,26.1914,-97.0507,0.0,4.599217325,34.72637769,5.49,'11111222,11111222,11111222' 
TABS,ioos:station:wmo:42044:1,2016-09-02T20:00:00Z,26.1914,-97.0507,0.0,4.497554891,44.27902237,5.26,'11111222,11111222,11111222' 
TABS,ioos:station:wmo:42044:1,2016-09-02T20:30:00Z,26.1914,-97.0507,0.0,4.17310436,43.6403817,4.98,'11111222,11111222,11111222' 
TABS,ioos:station:wmo:42044:1,2016-09-02T21:00:00Z,26.1914,-97.0507,0.0,4.2276471,51.53035215,4.95,'11111222,11111222,11111222' 
TABS,ioos:station:wmo:42044:1,2016-09-02T21:30:00Z,26.1914,-97.0507,0.0,4.260187789,61.38918632,4.91,'11111222,11111222,11111222' 
TABS,ioos:station:wmo:42044:1,2016-09-02T22:00:00Z,26.1914,-97.0507,0.0,4.030198506,64.57907887,5.06,'11111222,11111222,11111222' 
TABS,ioos:station:wmo:42044:1,2016-09-02T22:30:00Z,26.1914,-97.0507,0.0,4.180251189,65.70314568,4.99,'11111222,11111222,11111222' 
TABS,ioos:station:wmo:42044:1,2016-09-02T23:00:00Z,26.1914,-97.0507,0.0,3.325432303,56.40516264,4.0,'11111222,11111222,11111222' 
TABS,ioos:station:wmo:42044:1,2016-09-02T23:30:00Z,26.1914,-97.0507,0.0,2.971683025,69.30818483,3.68,'11111222,11111222,11111222' 
TABS,ioos:station:wmo:42044:1,2016-09-03T00:00:00Z,26.1914,-97.0507,0.0,2.80585103,82.21603776,3.38,'11111222,11111222,11111222' 
TABS,ioos:station:wmo:42044:1,2016-09-03T00:30:00Z,26.1914,-97.0507,0.0,3.288236609,64.99327059,4.06,'11111222,11111222,11111222' 
TABS,ioos:station:wmo:42044:1,2016-09-03T01:00:00Z,26.1914,-97.0507,0.0,2.921540689,65.10122128,3.7,'11111222,11111222,11111222' 
TABS,ioos:station:wmo:42044:1,2016-09-03T01:30:00Z,26.1914,-97.0507,0.0,3.300484813,63.74513249,3.95,'11111222,11111222,11111222' 
TABS,ioos:station:wmo:42044:1,2016-09-03T02:00:00Z,26.1914,-97.0507,0.0,3.310589071,64.9827441,3.94,'11111222,11111222,11111222' 
TABS,ioos:station:wmo:42044:1,2016-09-03T02:30:00Z,26.1914,-97.0507,0.0,4.18243948,77.2924953,4.94,'11111222,11111222,11111222' 
TABS,ioos:station:wmo:42044:1,2016-09-03T03:00:00Z,26.1914,-97.0507,0.0,4.323147002,67.70600206,5.28,'11111222,11111222,11111222' 
TABS,ioos:station:wmo:42044:1,2016-09-03T03:30:00Z,26.1914,-97.0507,0.0,4.71815642,71.33426317,5.6,'11111222,11111222,11111222' 
TABS,ioos:station:wmo:42044:1,2016-09-03T04:00:00Z,26.1914,-97.0507,0.0,4.891155283,65.47812395,6.05,'11111222,11111222,11111222' 
TABS,ioos:station:wmo:42044:1,2016-09-03T04:30:00Z,26.1914,-97.0507,0.0,4.43731901,77.37276373,5.58,'11111222,11111222,11111222' 
TABS,ioos:station:wmo:42044:1,2016-09-03T05:00:00Z,26.1914,-97.0507,0.0,4.193447269,76.06278241,5.18,'11111222,11111222,11111222' 
TABS,ioos:station:wmo:42044:1,2016-09-03T05:30:00Z,26.1914,-97.0507,0.0,4.530706347,88.98784062,5.48,'11111222,11111222,11111222' 
TABS,ioos:station:wmo:42044:1,2016-09-03T06:00:00Z,26.1914,-97.0507,0.0,4.550571393,99.35922464,5.49,'11111222,11111222,11111222' 
TABS,ioos:station:wmo:42044:1,2016-09-03T06:30:00Z,26.1914,-97.0507,0.0,4.057831933,95.37380609,4.89,'11111222,11111222,11111222' 
TABS,ioos:station:wmo:42044:1,2016-09-03T07:00:00Z,26.1914,-97.0507,0.0,3.565571483,103.2961168,4.66,'11111222,11111222,11111222' 
TABS,ioos:station:wmo:42044:1,2016-09-03T07:30:00Z,26.1914,-97.0507,0.0,3.083796362,105.6140044,3.82,'11111222,11111222,11111222' 
TABS,ioos:station:wmo:42044:1,2016-09-03T08:00:00Z,26.1914,-97.0507,0.0,3.005328601,116.9064515,3.68,'11111222,11111222,11111222' 
TABS,ioos:station:wmo:42044:1,2016-09-03T08:30:00Z,26.1914,-97.0507,0.0,2.325725693,120.203588,2.78,'11111222,11111222,11111222' 
TABS,ioos:station:wmo:42044:1,2016-09-03T09:00:00Z,26.1914,-97.0507,0.0,2.0902153,126.0478633,2.55,'11111222,11111222,11111222' 
TABS,ioos:station:wmo:42044:1,2016-09-03T09:30:00Z,26.1914,-97.0507,0.0,1.75931805,98.49895992,2.38,'11111222,11111222,11111222' 
TABS,ioos:station:wmo:42044:1,2016-09-03T10:00:00Z,26.1914,-97.0507,0.0,4.392561895,75.3622766,5.45,'11111222,11111222,11111222' 
TABS,ioos:station:wmo:42044:1,2016-09-03T10:30:00Z,26.1914,-97.0507,0.0,3.203061036,64.87468002,3.78,'11111222,11111222,11111222' 
TABS,ioos:station:wmo:42044:1,2016-09-03T11:00:00Z,26.1914,-97.0507,0.0,3.075386155,67.43709132,3.67,'11111222,11111222,11111222' 
TABS,ioos:station:wmo:42044:1,2016-09-03T11:30:00Z,26.1914,-97.0507,0.0,2.191346618,63.43459003,2.85,'11111222,11111222,11111222' 
TABS,ioos:station:wmo:42044:1,2016-09-03T12:00:00Z,26.1914,-97.0507,0.0,2.385497852,61.1783301,2.98,'11111222,11111222,11111222' 
TABS,ioos:station:wmo:42044:1,2016-09-03T12:30:00Z,26.1914,-97.0507,0.0,3.378313189,72.95923573,4.23,'11111222,11111222,11111222' 
TABS,ioos:station:wmo:42044:1,2016-09-03T13:00:00Z,26.1914,-97.0507,0.0,2.522300537,116.3622348,5.08,'11111222,11111222,11111222' 
TABS,ioos:station:wmo:42044:1,2016-09-03T13:30:00Z,26.1914,-97.0507,0.0,1.170042734,127.3599268,2.25,'11111222,11111222,11111222' 
TABS,ioos:station:wmo:42044:1,2016-09-03T14:00:00Z,26.1914,-97.0507,0.0,1.244226667,68.79681002,1.87,'11111222,11111222,11111222' 
TABS,ioos:station:wmo:42044:1,2016-09-03T14:30:00Z,26.1914,-97.0507,0.0,2.238771985,57.58734826,3.08,'11111222,11111222,11111222' 
TABS,ioos:station:wmo:42044:1,2016-09-03T15:00:00Z,26.1914,-97.0507,0.0,1.927537289,48.78578749,2.77,'11111222,11111222,11111222' 
TABS,ioos:station:wmo:42044:1,2016-09-03T15:30:00Z,26.1914,-97.0507,0.0,2.6191029,35.20678719,3.45,'11111222,11111222,11111222' 
TABS,ioos:station:wmo:42044:1,2016-09-03T16:00:00Z,26.1914,-97.0507,0.0,2.831766233,28.01270146,3.74,'11111222,11111222,11111222' 
TABS,ioos:station:wmo:42044:1,2016-09-03T16:30:00Z,26.1914,-97.0507,0.0,3.779219496,35.41401638,4.72,'11111222,11111222,11111222' 
TABS,ioos:station:wmo:42044:1,2016-09-03T17:00:00Z,26.1914,-97.0507,0.0,3.72667412,30.83163854,4.61,'11111222,11111222,11111222' 
TABS,ioos:station:wmo:42044:1,2016-09-03T17:30:00Z,26.1914,-97.0507,0.0,3.883979918,24.65123494,4.78,'11111222,11111222,11111222' 
TABS,ioos:station:wmo:42044:1,2016-09-03T18:00:00Z,26.1914,-97.0507,0.0,4.036087214,41.98690385,4.81,'11111222,11111222,11111222' 
TABS,ioos:station:wmo:42044:1,2016-09-03T18:30:00Z,26.1914,-97.0507,0.0,4.698254995,47.06971012,5.81,'11111222,11111222,11111222' 
TABS,ioos:station:wmo:42044:1,2016-09-03T19:00:00Z,26.1914,-97.0507,0.0,5.224040582,51.52827673,6.39,'11111222,11111222,11111222' 
TABS,ioos:station:wmo:42044:1,2016-09-03T19:30:00Z,26.1914,-97.0507,0.0,5.129054494,51.96792476,6.22,'11111222,11111222,11111222' 
TABS,ioos:station:wmo:42044:1,2016-09-03T20:00:00Z,26.1914,-97.0507,0.0,5.20197078,71.39052301,6.43,'11111222,11111222,11111222' 
TABS,ioos:station:wmo:42044:1,2016-09-03T20:30:00Z,26.1914,-97.0507,0.0,5.107102897,71.38728804,6.18,'11111222,11111222,11111222' 
TABS,ioos:station:wmo:42044:1,2016-09-03T21:00:00Z,26.1914,-97.0507,0.0,8.841023696,85.19827528,10.7,'11111222,11111222,11111222' 
TABS,ioos:station:wmo:42044:1,2016-09-03T21:30:00Z,26.1914,-97.0507,0.0,5.613216547,91.94017371,6.8,'11111222,11111222,11111222' 
TABS,ioos:station:wmo:42044:1,2016-09-03T22:00:00Z,26.1914,-97.0507,0.0,5.851401542,85.09771065,6.96,'11111222,11111222,11111222' 
TABS,ioos:station:wmo:42044:1,2016-09-03T22:30:00Z,26.1914,-97.0507,0.0,5.508411749,94.6863098,6.52,'11111222,11111222,11111222' 
TABS,ioos:station:wmo:42044:1,2016-09-03T23:00:00Z,26.1914,-97.0507,0.0,5.515886148,81.13497642,6.66,'11111222,11111222,11111222' 
TABS,ioos:station:wmo:42044:1,2016-09-03T23:30:00Z,26.1914,-97.0507,0.0,5.384663406,96.50510498,6.29,'11111222,11111222,11111222' 
TABS,ioos:station:wmo:42044:1,2016-09-04T00:00:00Z,26.1914,-97.0507,0.0,6.022424761,118.3526585,7.29,'11111222,11111222,11111222' 
TABS,ioos:station:wmo:42044:1,2016-09-04T00:30:00Z,26.1914,-97.0507,0.0,10.45769095,161.7212345,12.47,'11111222,11111222,11111222' 
TABS,ioos:station:wmo:42044:1,2016-09-04T01:00:00Z,26.1914,-97.0507,0.0,7.970771606,158.9730703,9.57,'11111222,11111222,11111222' 
TABS,ioos:station:wmo:42044:1,2016-09-04T01:30:00Z,26.1914,-97.0507,0.0,4.259213542,176.2308858,5.47,'11111222,11111222,11111222' 
TABS,ioos:station:wmo:42044:1,2016-09-04T02:00:00Z,26.1914,-97.0507,0.0,3.11746692,154.3393818,4.01,'11111222,11111222,11111222' 
TABS,ioos:station:wmo:42044:1,2016-09-04T02:30:00Z,26.1914,-97.0507,0.0,1.68629772,123.8788815,2.54,'11111222,11111222,11111222' 
TABS,ioos:station:wmo:42044:1,2016-09-04T03:00:00Z,26.1914,-97.0507,0.0,2.112486686,103.9708501,2.99,'11111222,11111222,11111222' 
TABS,ioos:station:wmo:42044:1,2016-09-04T03:30:00Z,26.1914,-97.0507,0.0,2.352551806,80.45720128,3.14,'11111222,11111222,11111222' 
TABS,ioos:station:wmo:42044:1,2016-09-04T04:00:00Z,26.1914,-97.0507,0.0,2.385812231,98.4361687,3.69,'11111222,11111222,11111222' 
TABS,ioos:station:wmo:42044:1,2016-09-04T04:30:00Z,26.1914,-97.0507,0.0,3.342528983,104.9097197,3.96,'11111222,11111222,11111222' 
TABS,ioos:station:wmo:42044:1,2016-09-04T05:00:00Z,26.1914,-97.0507,0.0,2.029408781,82.06913133,2.84,'11111222,11111222,11111222' 
TABS,ioos:station:wmo:42044:1,2016-09-04T05:30:00Z,26.1914,-97.0507,0.0,4.948717005,85.01480517,5.85,'11111222,11111222,11111222' 
TABS,ioos:station:wmo:42044:1,2016-09-04T06:00:00Z,26.1914,-97.0507,0.0,5.227360711,108.0540545,6.11,'11111222,11111222,11111222' 
TABS,ioos:station:wmo:42044:1,2016-09-04T06:30:00Z,26.1914,-97.0507,0.0,4.513679209,119.461827,5.77,'11111222,11111222,11111222' 
TABS,ioos:station:wmo:42044:1,2016-09-04T07:00:00Z,26.1914,-97.0507,0.0,4.285148772,109.0695699,5.14,'11111222,11111222,11111222' 
TABS,ioos:station:wmo:42044:1,2016-09-04T07:30:00Z,26.1914,-97.0507,0.0,4.850041237,129.7302711,5.72,'11111222,11111222,11111222' 
TABS,ioos:station:wmo:42044:1,2016-09-04T08:00:00Z,26.1914,-97.0507,0.0,5.720533192,134.7878483,6.78,'11111222,11111222,11111222' 
TABS,ioos:station:wmo:42044:1,2016-09-04T08:30:00Z,26.1914,-97.0507,0.0,6.32216735,142.713513,7.15,'11111222,11111222,11111222' 
TABS,ioos:station:wmo:42044:1,2016-09-04T09:00:00Z,26.1914,-97.0507,0.0,6.678338117,152.2457306,8.06,'11111222,11111222,11111222' 
TABS,ioos:station:wmo:42044:1,2016-09-04T09:30:00Z,26.1914,-97.0507,0.0,6.130391505,145.299227,7.73,'11111222,11111222,11111222' 
TABS,ioos:station:wmo:42044:1,2016-09-04T10:00:00Z,26.1914,-97.0507,0.0,6.034641663,166.5857529,7.23,'11111222,11111222,11111222' 
TABS,ioos:station:wmo:42044:1,2016-09-04T10:30:00Z,26.1914,-97.0507,0.0,4.619794368,170.0281761,5.74,'11111222,11111222,11111222' 
TABS,ioos:station:wmo:42044:1,2016-09-04T11:00:00Z,26.1914,-97.0507,0.0,4.694017469,164.8093602,5.66,'11111222,11111222,11111222' 
TABS,ioos:station:wmo:42044:1,2016-09-04T11:30:00Z,26.1914,-97.0507,0.0,4.623948529,157.7616647,5.82,'11111222,11111222,11111222' 
TABS,ioos:station:wmo:42044:1,2016-09-04T12:00:00Z,26.1914,-97.0507,0.0,4.886153907,172.1188765,6.3,'11111222,11111222,11111222' 
TABS,ioos:station:wmo:42044:1,2016-09-04T12:30:00Z,26.1914,-97.0507,0.0,4.858991665,173.7381639,6.5,'11111222,11111222,11111222' 
TABS,ioos:station:wmo:42044:1,2016-09-04T13:00:00Z,26.1914,-97.0507,0.0,4.54423811,171.1390366,5.55,'11111222,11111222,11111222' 
TABS,ioos:station:wmo:42044:1,2016-09-04T13:30:00Z,26.1914,-97.0507,0.0,3.762578903,164.7451274,4.97,'11111222,11111222,11111222' 
TABS,ioos:station:wmo:42044:1,2016-09-04T14:00:00Z,26.1914,-97.0507,0.0,3.312657543,167.9779619,4.25,'11111222,11111222,11111222' 
TABS,ioos:station:wmo:42044:1,2016-09-04T14:30:00Z,26.1914,-97.0507,0.0,2.863424523,158.2731653,4.13,'11111222,11111222,11111222' 
TABS,ioos:station:wmo:42044:1,2016-09-04T15:00:00Z,26.1914,-97.0507,0.0,2.270352396,170.6208874,3.06,'11111222,11111222,11111222' 
TABS,ioos:station:wmo:42044:1,2016-09-04T15:30:00Z,26.1914,-97.0507,0.0,2.728002933,153.4352214,3.74,'11111222,11111222,11111222' 
TABS,ioos:station:wmo:42044:1,2016-09-04T16:00:00Z,26.1914,-97.0507,0.0,3.368278492,152.2179672,4.26,'11111222,11111222,11111222' 
TABS,ioos:station:wmo:42044:1,2016-09-04T16:30:00Z,26.1914,-97.0507,0.0,2.817889281,146.1410422,3.53,'11111222,11111222,11111222' 
TABS,ioos:station:wmo:42044:1,2016-09-04T17:00:00Z,26.1914,-97.0507,0.0,3.465602401,150.6245137,4.48,'11111222,11111222,11111222' 
TABS,ioos:station:wmo:42044:1,2016-09-04T17:30:00Z,26.1914,-97.0507,0.0,8.040926564,135.9576736,10.87,'11111222,11111222,11111222' 
TABS,ioos:station:wmo:42044:1,2016-09-04T18:00:00Z,26.1914,-97.0507,0.0,1.802359565,79.12608411,2.61,'11111222,11111222,11111222' 
TABS,ioos:station:wmo:42044:1,2016-09-04T18:30:00Z,26.1914,-97.0507,0.0,9.910580205,153.900609,12.06,'11111222,11111222,11111222' 